User: anonymous   Login
Location: Unspecified
(0.0000°N, 0.0000°E)
Time: 13:34:40
(UTC+00:00)
Language:

Tiangong 2 - Orbit

View from above orbital plane
View from above orbital plane
View from above satellite
View from above satellite

Ground track
Ground track

The orbit data is extracted from the following two-line orbital elements,

1 41765U 16057A   18291.16337807  .00004660  00000-0  61168-4 0  9990
2 41765  42.7855 329.0302 0006964  21.6016  79.9990 15.59752575119225
Epoch (UTC): 18 October 2018 03:55:15
Eccentricity: 0.0006964
inclination: 42.7855°
perigee height: 383 km
apogee height: 393 km
right ascension of ascending node: 329.0302°
argument of perigee: 21.6016°
revolutions per day: 15.59752575
mean anomaly at epoch: 79.9990°
orbit number at epoch: 11922

The dashed part of the orbit path shows where the satellite is in the earth's shadow,  

DLR